Location: Starry Hill Observatory
(46.8582°N, 122.3590°W)
Time: 15:23:47
(UTC-07:00)

ISS - Visible Passes

Search period start: 20 August 2014 00:00
Search period end: 30 August 2014 00:00
Orbit: 413 x 419 km, 51.6° (Epoch: 20 August)

Date Brightness Start Highest point End Pass type
(mag) Time Alt. Az. Time Alt. Az. Time Alt. Az.
20 Aug -1.2 22:03:27 10° W 22:05:48 18° SW 22:06:29 17° SSW visible
21 Aug -1.7 21:14:32 10° W 21:17:27 28° SW 21:19:53 13° SSE visible
23 Aug -0.6 21:15:21 10° WSW 21:16:44 12° SW 21:18:07 10° SSW visible
